Weather History for Lexington, NE

Change the Weather History Date:

Wednesday, November 20, 2013

  Actual Average Record
Temperature  
Mean Temperature 49 °F -  
Max Temperature 62 °F 45 °F 70 °F (2012)
Min Temperature 34 °F 22 °F 6 °F (2000)
Degree Days  
Heating Degree Days 16    
Moisture  
Dew Point 33 °F    
Average Humidity 61    
Maximum Humidity 83    
Minimum Humidity 30    
Precipitation  
Precipitation 0.00 in - - ()
Sea Level Pressure  
Sea Level Pressure 29.77 in    
Wind  
Wind Speed 7 mph (NNW)    
Max Wind Speed 20 mph    
Max Gust Speed 25 mph    
Visibility 10 miles    
Events      
Averages and records for this station are not official NWS values.
T = Trace of Precipitation, MM = Missing Value Source: NWS Daily Summary

Daily Weather History Graph

Daily Weather History Graph

Search for Another Location

Airport:

Trip Planner

Search our weather history database for the weather conditions in past years. The results will help you decide how hot, cold, wet, or windy it might be!

Date:

Astronomy

Nov. 20, 2013 Rise Set
Actual Time 7:32 AM CST 5:17 PM CST
Civil Twilight 7:02 AM CST 5:46 PM CST
Nautical Twilight 6:29 AM CST 6:20 PM CST
Astronomical Twilight 5:56 AM CST 6:52 PM CST
Moon 8:01 PM CST (11/20) 9:58 AM CST (11/20)
Length of Visible Light 10h 44m
Length of Day
9h 44m
Waning Gibbous, 91% of the Moon is Illuminated
Nov 20
Waning Gibbous
Nov 25
Last Quarter
Dec 2
New
Dec 9
First Quarter
Dec 17
Full

Hourly Weather History & Observations

Time (CST) Temp. Windchill Dew Point Humidity Pressure Visibility Wind Dir Wind Speed Gust Speed Precip Events Conditions
12:15 AM 45.7 °F 40.6 °F 34.5 °F 65% 29.73 in 10.0 mi South 10.4 mph - N/A   Clear
12:35 AM 45.5 °F 42.5 °F 34.7 °F 66% 29.74 in 10.0 mi South 5.8 mph - N/A   Clear
12:55 AM 45.7 °F 42.0 °F 34.7 °F 65% 29.73 in 10.0 mi SSE 6.9 mph - N/A   Clear
1:15 AM 45.0 °F 41.2 °F 34.9 °F 68% 29.73 in 10.0 mi South 6.9 mph - N/A   Clear
1:35 AM 44.8 °F 41.0 °F 35.1 °F 69% 29.73 in 10.0 mi South 6.9 mph - N/A   Scattered Clouds
1:55 AM 45.0 °F 43.5 °F 35.4 °F 69% 29.71 in 10.0 mi SSE 3.5 mph - N/A   Scattered Clouds
2:15 AM 45.5 °F 42.5 °F 35.6 °F 68% 29.73 in 10.0 mi South 5.8 mph - N/A   Mostly Cloudy
2:35 AM 45.7 °F 42.0 °F 35.6 °F 68% 29.73 in 10.0 mi South 6.9 mph - N/A   Mostly Cloudy
2:55 AM 45.1 °F 40.8 °F 35.6 °F 69% 29.73 in 10.0 mi South 8.1 mph - N/A   Mostly Cloudy
3:15 AM 44.6 °F 40.7 °F 35.8 °F 71% 29.73 in 10.0 mi South 6.9 mph - N/A   Scattered Clouds
3:35 AM 43.9 °F 39.9 °F 35.8 °F 73% 29.73 in 10.0 mi South 6.9 mph - N/A   Scattered Clouds
3:55 AM 43.2 °F 39.7 °F 36.0 °F 76% 29.73 in 10.0 mi SSW 5.8 mph - N/A   Mostly Cloudy
4:15 AM 44.2 °F 41.8 °F 36.7 °F 75% 29.72 in 10.0 mi SW 4.6 mph - N/A   Mostly Cloudy
4:35 AM 44.4 °F 40.5 °F 37.0 °F 75% 29.71 in 10.0 mi SSW 6.9 mph - N/A   Scattered Clouds
4:55 AM 44.2 °F 40.3 °F 37.0 °F 76% 29.71 in 10.0 mi SW 6.9 mph - N/A   Clear
5:15 AM 43.2 °F 40.5 °F 36.5 °F 77% 29.71 in 10.0 mi South 4.6 mph - N/A   Clear
5:35 AM 42.3 °F 38.6 °F 36.3 °F 79% 29.71 in 10.0 mi SW 5.8 mph - N/A   Clear
5:55 AM 42.1 °F - 36.5 °F 81% 29.71 in 10.0 mi Calm Calm - N/A   Clear
6:15 AM 41.2 °F - 36.5 °F 83% 29.71 in 10.0 mi Calm Calm - N/A   Clear
6:35 AM 40.5 °F 35.8 °F 35.1 °F 81% 29.71 in 10.0 mi SSW 6.9 mph - N/A   Clear
6:55 AM 40.5 °F 36.5 °F 35.2 °F 82% 29.71 in 10.0 mi SW 5.8 mph - N/A   Clear
7:15 AM 40.5 °F 36.5 °F 34.5 °F 79% 29.73 in 10.0 mi WSW 5.8 mph - N/A   Clear
7:35 AM 39.9 °F 35.8 °F 34.2 °F 80% 29.73 in 10.0 mi SW 5.8 mph - N/A   Clear
7:55 AM 38.3 °F 34.8 °F 33.1 °F 81% 29.74 in 10.0 mi West 4.6 mph - N/A   Clear
8:15 AM 37.8 °F 35.3 °F 33.1 °F 83% 29.74 in 10.0 mi SW 3.5 mph - N/A   Clear
8:35 AM 37.4 °F 32.8 °F 32.5 °F 83% 29.73 in 10.0 mi West 5.8 mph - N/A   Clear
8:55 AM 40.3 °F 37.1 °F 34.5 °F 80% 29.74 in 10.0 mi WSW 4.6 mph - N/A   Clear
9:15 AM 43.3 °F 39.9 °F 35.1 °F 73% 29.75 in 10.0 mi West 5.8 mph - N/A   Clear
9:35 AM 45.7 °F 42.7 °F 35.8 °F 68% 29.75 in 10.0 mi West 5.8 mph - N/A   Clear
9:55 AM 48.4 °F - 35.8 °F 62% 29.75 in 10.0 mi WNW 10.4 mph - N/A   Clear
10:15 AM 50.0 °F - 36.0 °F 59% 29.76 in 10.0 mi WNW 10.4 mph - N/A   Clear
10:35 AM 51.4 °F - 36.9 °F 58% 29.76 in 10.0 mi WNW 9.2 mph - N/A   Clear
10:55 AM 53.1 °F - 36.1 °F 53% 29.76 in 10.0 mi NW 11.5 mph - N/A   Clear
11:15 AM 54.5 °F - 35.4 °F 49% 29.76 in 10.0 mi WNW 10.4 mph - N/A   Clear
11:35 AM 55.8 °F - 34.7 °F 45% 29.75 in 10.0 mi WNW 8.1 mph - N/A   Clear
11:55 AM 57.2 °F - 34.9 °F 43% 29.75 in 10.0 mi WNW 9.2 mph - N/A   Clear
12:15 PM 57.9 °F - 34.2 °F 41% 29.74 in 10.0 mi NNW 8.1 mph - N/A   Clear
12:35 PM 59.4 °F - 32.9 °F 37% 29.73 in 10.0 mi NW 9.2 mph - N/A   Clear
12:55 PM 61.2 °F - 32.4 °F 34% 29.73 in 10.0 mi NNW 9.2 mph - N/A   Clear
1:15 PM 61.7 °F - 31.6 °F 32% 29.72 in 10.0 mi North 10.4 mph - N/A   Clear
1:35 PM 61.9 °F - 31.6 °F 32% 29.72 in 10.0 mi North 6.9 mph - N/A   Clear
1:55 PM 62.8 °F - 30.7 °F 30% 29.71 in 10.0 mi North 9.2 mph - N/A   Clear
2:15 PM 62.6 °F - 30.4 °F 30% 29.71 in 10.0 mi North 9.2 mph - N/A   Clear
2:35 PM 62.1 °F - 30.9 °F 31% 29.72 in 10.0 mi NNW 6.9 mph - N/A   Clear
2:55 PM 62.1 °F - 30.4 °F 30% 29.73 in 10.0 mi North 6.9 mph - N/A   Clear
3:15 PM 62.4 °F - 31.1 °F 31% 29.73 in 10.0 mi NE 4.6 mph - N/A   Clear
3:35 PM 61.9 °F - 30.9 °F 31% 29.74 in 10.0 mi NE 5.8 mph - N/A   Clear
3:55 PM 61.7 °F - 29.8 °F 30% 29.75 in 10.0 mi NNE 4.6 mph - N/A   Clear
4:15 PM 61.0 °F - 30.6 °F 32% 29.76 in 10.0 mi Calm Calm - N/A   Clear
4:35 PM 60.1 °F - 31.1 °F 33% 29.77 in 10.0 mi Calm Calm - N/A   Clear
4:55 PM 58.8 °F - 30.2 °F 34% 29.77 in 10.0 mi NE 3.5 mph - N/A   Clear
5:15 PM 53.2 °F - 31.3 °F 43% 29.78 in 10.0 mi NE 5.8 mph - N/A   Clear
5:35 PM 51.1 °F - 30.4 °F 45% 29.78 in 10.0 mi NE 5.8 mph - N/A   Clear
5:55 PM 48.4 °F - 30.2 °F 49% 29.79 in 7.0 mi ENE 4.6 mph - N/A   Clear
6:15 PM 47.8 °F - 30.2 °F 50% 29.80 in 10.0 mi East 4.6 mph - N/A   Clear
6:35 PM 43.7 °F 39.7 °F 30.2 °F 59% 29.81 in 10.0 mi ENE 6.9 mph - N/A   Clear
6:55 PM 40.5 °F 37.3 °F 30.2 °F 67% 29.82 in 10.0 mi NE 4.6 mph - N/A   Clear
7:15 PM 39.9 °F 35.8 °F 29.5 °F 66% 29.83 in 10.0 mi NE 5.8 mph - N/A   Clear
7:35 PM 37.8 °F 31.8 °F 29.1 °F 71% 29.83 in 10.0 mi NNE 8.1 mph - N/A   Clear
7:55 PM 39.9 °F 34.5 °F 30.6 °F 69% 29.84 in 10.0 mi NE 8.1 mph - N/A   Clear
8:15 PM 40.5 °F 34.6 °F 30.9 °F 69% 29.85 in 10.0 mi NNE 9.2 mph - N/A   Clear
8:35 PM 40.5 °F 33.2 °F 31.5 °F 70% 29.85 in 10.0 mi NNE 12.7 mph - N/A   Clear
8:55 PM 40.5 °F 36.5 °F 30.9 °F 69% 29.85 in 10.0 mi NE 5.8 mph - N/A   Clear
9:15 PM 39.4 °F 34.5 °F 31.1 °F 72% 29.86 in 10.0 mi NE 6.9 mph - N/A   Clear
9:35 PM 39.4 °F 35.2 °F 31.6 °F 74% 29.88 in 10.0 mi ENE 5.8 mph - N/A   Clear
9:55 PM 39.2 °F 33.6 °F 31.5 °F 74% 29.90 in 10.0 mi NE 8.1 mph - N/A   Clear
10:15 PM 38.5 °F 31.1 °F 31.6 °F 76% 29.93 in 10.0 mi North 11.5 mph - N/A   Clear
10:35 PM 39.2 °F 30.8 °F 32.0 °F 75% 29.95 in 10.0 mi NNE 15.0 mph 19.6 mph N/A   Clear
10:55 PM 39.2 °F 31.2 °F 32.0 °F 75% 29.97 in 10.0 mi NNE 13.8 mph 20.7 mph N/A   Clear
11:15 PM 37.8 °F 30.2 °F 31.3 °F 77% 29.99 in 10.0 mi NNE 11.5 mph 19.6 mph N/A   Clear
11:35 PM 36.5 °F 26.3 °F 29.7 °F 76% 30.02 in 10.0 mi North 18.4 mph 24.2 mph N/A   Clear
11:55 PM 34.7 °F 23.7 °F 28.2 °F 77% 30.04 in 10.0 mi North 19.6 mph 25.3 mph N/A   Clear